Location: Unspecified
(0.0000°N, 0.0000°E)
Time: 15:38:43
(UTC+00:00)

Transit 2A - All Passes

Search period start: 11 December 2023 00:00
Search period end: 21 December 2023 00:00
Orbit: 601 x 953 km, 66.7° (Epoch: 10 December)

Date Brightness Start Highest point End Pass type
(mag) Time Alt. Az. Time Alt. Az. Time Alt. Az.
11 Dec - 00:23:48 10° NNW 00:28:29 71° ENE 00:33:41 10° SSE night (unlit)
11 Dec - 11:17:27 10° SSE 11:20:57 16° ESE 11:24:17 10° ENE daylight
11 Dec - 12:58:37 10° SW 13:03:59 37° WNW 13:08:53 10° N daylight
11 Dec - 23:49:17 10° N 23:53:39 38° ENE 23:58:27 10° SE night (unlit)
12 Dec - 01:35:03 10° W 01:36:41 11° WSW 01:38:23 10° SW night (unlit)
12 Dec - 12:23:19 10° SSW 12:29:09 64° WNW 12:34:25 10° N daylight
12 Dec - 23:15:13 10° NNE 23:18:50 22° ENE 23:22:42 10° ESE night (unlit)
13 Dec - 00:58:05 10° WNW 01:01:40 21° WSW 01:05:33 10° SSW night (unlit)
13 Dec - 11:48:21 10° SSW 11:54:15 76° ESE 11:59:36 10° NNE daylight
13 Dec - 22:42:14 10° NE 22:44:01 12° ENE 22:45:50 10° E night (unlit)
14 Dec - 00:22:18 10° NW 00:26:42 36° WSW 00:31:32 10° S night (unlit)
14 Dec - 11:13:44 10° S 11:19:21 44° ESE 11:24:26 10° NE daylight
14 Dec - 12:59:45 10° W 13:02:03 13° WNW 13:04:18 10° NW daylight
14 Dec - 23:47:02 10° NNW 23:51:46 64° WSW 23:57:01 10° SSE night (unlit)
15 Dec - 10:39:30 10° SSE 10:44:22 27° ESE 10:48:53 10° NE daylight
15 Dec - 12:22:55 10° WSW 12:27:14 22° WNW 12:31:15 10° NNW daylight
15 Dec - 23:12:08 10° NNW 23:16:53 71° ENE 23:22:09 10° SSE night (unlit)
16 Dec - 10:05:56 10° SSE 10:09:22 16° ESE 10:12:39 10° ENE daylight
16 Dec - 11:47:07 10° SW 11:52:24 37° WNW 11:57:15 10° N daylight
16 Dec - 22:37:36 10° N 22:42:02 39° ENE 22:46:54 10° SE night (unlit)
17 Dec - 00:23:20 10° W 00:25:05 12° WSW 00:26:54 10° SW night (unlit)
17 Dec - 11:11:48 10° SSW 11:17:34 64° WNW 11:22:46 10° N daylight
17 Dec - 22:03:32 10° NNE 22:07:13 22° ENE 22:11:11 10° ESE night (unlit)
17 Dec - 23:46:25 10° WNW 23:50:04 21° WSW 23:54:00 10° SSW night (unlit)
18 Dec - 10:36:50 10° SSW 10:42:41 76° ESE 10:47:57 10° NNE daylight
18 Dec - 21:30:28 10° NE 21:32:24 12° ENE 21:34:23 10° E night (unlit)
18 Dec - 23:10:39 10° NW 23:15:05 36° WSW 23:19:59 10° S night (unlit)
19 Dec - 10:02:12 10° S 10:07:45 44° ESE 10:12:48 10° NE daylight
19 Dec - 11:48:18 10° W 11:50:28 12° WNW 11:52:33 10° NW daylight
19 Dec - 22:35:23 10° NNW 22:40:09 64° WSW 22:45:29 10° SSE night (unlit)
20 Dec - 09:27:59 10° SSE 09:32:47 26° ESE 09:37:14 10° NE daylight
20 Dec - 11:11:24 10° WSW 11:15:38 22° WNW 11:19:35 10° NNW daylight
20 Dec - 22:00:29 10° NNW 22:05:16 71° ENE 22:10:36 10° SSE night (unlit)
